Regional Weather Roundup
Issued by NWS

Home | Current Version | Previous Version | Text Only | Print | Product List | Glossary Off
Versions: 1 2 3 4 5 6 7 8 9 10 11 12 13 14 15 16 17 18 19 20 21 22 23 24 25 26 27 28 29 30 31 32 33 34 35 36 37 38 39 40 41 42 43 44 45 46 47 48 49 50

000
ASUS44 KMEG 280300
RWRTN
TENNESSEE HOURLY STATE WEATHER ROUNDUP
NATIONAL WEATHER SERVICE MEMPHIS TN
900 PM CST TUE JAN 27 2015

TNZ002-004-019-021-049-052-054-088>092-280400-
WEST TENNESSEE

CITY           SKY/WX    TMP DP  RH WIND       PRES   REMARKS
MEMPHIS INTL   CLEAR     44  33  65 E7        30.20S
NWS MEMPHIS      N/A     42 N/A N/A MISG        N/A
JACKSON        CLEAR     33  28  81 CALM      30.22R
DYERSBURG      CLEAR     37  21  52 NE5       30.24R WCI  34
UNION CITY     CLEAR     34  28  80 NE6       30.22R WCI  29
PARIS          CLEAR     28  25  86 CALM      30.22R
LEXINGTON      CLEAR     36  27  69 NE5       30.21R WCI  32
SAVANNAH         N/A     36  28  75 CALM      30.22R
$$

TNZ008-025-027-028-033-062-065-066-280400-
NORTH MIDDLE TENNESSEE

CITY           SKY/WX    TMP DP  RH WIND       PRES   REMARKS
NASHVILLE      CLOUDY    35  31  85 N9        30.22R WCI  28
CLARKSVILLE    CLOUDY    35  28  75 N9        30.24R WCI  28
COOKEVILLE     CLOUDY    32  28  86 N6        30.17R WCI  26
CROSSVILLE     CLOUDY    31  23  72 VRB7G16   30.13R WCI  24
$$

TNZ061-075-076-078-094-096-097-280400-
SOUTH MIDDLE TENNESSEE

CITY           SKY/WX    TMP DP  RH WIND       PRES   REMARKS
FAYETTEVILLE   CLOUDY    36  27  69 N16       30.17R WCI  26
TULLAHOMA      CLOUDY    34  27  75 N9        30.17S WCI  26
WINCHESTER     CLOUDY    36  28  75 N10       30.17S WCI  28
SHELBYVILLE    CLOUDY    36  30  80 NE10      30.20R WCI  28
$$

TNZ017-018-042-046-047-280400-
NORTHEAST TENNESSEE

CITY           SKY/WX    TMP DP  RH WIND       PRES   REMARKS
TRI CITIES     CLEAR     27  19  72 W6        30.09R WCI  20
ELIZABETHTON   PTCLDY    27  18  69 CALM      30.08R
$$

TNZ012-013-036-069-073-074-280400-
CENTRAL EAST TENNESSEE

CITY           SKY/WX    TMP DP  RH WIND       PRES   REMARKS
KNOXVILLE      CLOUDY    33  25  72 N6        30.16R WCI  28
OAK RIDGE      CLOUDY    34  25  69 NW5       30.18R WCI  30
GATLINBURG     CLOUDY    30  23  74 NW7       30.15R WCI  23
$$

TNZ083-085-099-280400-
SOUTHEAST TENNESSEE

CITY           SKY/WX    TMP DP  RH WIND       PRES   REMARKS
CHATTANOOGA    CLOUDY    38  28  67 NW9       30.16S WCI  31
$$

SKY/WX REPORTED AS FAIR MEANS FEW OR NO CLOUDS BELOW
12 THOUSAND FEET.



USA.gov is the U.S. government's official web portal to all federal, state and local government web resources and services.